DW8495 Weather Reports


time (UTC)temp
F
wind
direction
speed
knots
gust
knots
rain 1hr
in
rain 24hr
in
rain mn
in
humidity
%
barometer
mb
20260504192832 82 77 7.0 7.8 0.00 0.69 0.69 74 1015.6
20260504192329 82 56 3.5 5.2 0.00 0.69 0.69 74 1015.6
20260504191827 83 47 5.2 7.0 0.00 0.69 0.69 72 1015.7
20260504191324 83 124 3.5 6.1 0.00 0.69 0.69 72 1015.8
20260504190820 83 49 5.2 7.0 0.00 0.69 0.69 72 1015.9
20260504190316 82 49 1.7 2.6 0.00 0.69 0.69 75 1016.1
20260504185813 82 51 3.5 4.3 0.00 0.69 0.69 74 1016.1
20260504185310 82 74 4.3 6.1 0.00 0.69 0.69 74 1016.1
20260504184806 82 66 2.6 5.2 0.00 0.69 0.69 75 1016.3
20260504184302 82 84 4.3 7.8 0.00 0.69 0.69 74 1016.2
20260504183758 82 83 2.6 5.2 0.00 0.69 0.69 74 1016.4
20260504183255 82 68 4.3 7.0 0.00 0.69 0.69 74 1016.5
20260504182753 82 74 1.7 2.6 0.00 0.69 0.69 74 1016.6
20260504182250 83 20 5.2 5.2 0.00 0.69 0.69 72 1016.4
20260504181748 83 14 2.6 6.1 0.00 0.69 0.69 73 1016.4
20260504181244 83 85 4.3 6.1 0.00 0.69 0.69 72 1016.4
20260504180744 83 49 4.3 6.1 0.00 0.69 0.69 72 1016.7
20260504180242 82 55 4.3 5.2 0.00 0.69 0.69 73 1016.7
20260504175739 82 41 2.6 2.6 0.00 0.69 0.69 73 1016.5
20260504175236 82 90 2.6 4.3 0.00 0.69 0.69 75 1016.3
20260504174734 83 40 3.5 6.1 0.00 0.69 0.69 73 1016.4
20260504174232 83 25 2.6 4.3 0.00 0.69 0.69 72 1016.5
20260504173727 83 59 2.6 4.3 0.00 0.69 0.69 74 1016.5
20260504173225 83 104 0.9 0.9 0.00 0.69 0.69 74 1016.7
20260504172721 83 34 4.3 7.0 0.00 0.69 0.69 73 1016.7
20260504172218 82 66 4.3 6.1 0.00 0.69 0.69 75 1016.7
20260504171714 81 68 1.7 2.6 0.00 0.69 0.69 76 1016.8
20260504171211 82 30 6.1 6.1 0.00 0.69 0.69 74 1016.9
20260504170708 82 5 5.2 7.0 0.00 0.69 0.69 74 1017.0
20260504170206 83 59 6.1 8.7 0.00 0.69 0.69 73 1016.8
20260504160124 83 23 1.7 1.7 0.00 0.69 0.69 73 1017.1
20260504151051 82 89 0.0 0.0 0.00 0.69 0.69 73 1017.3
20260504150549 82 78 0.9 0.9 0.00 0.69 0.69 74 1017.1
20260504141015 82 22 3.5 5.2 0.00 0.69 0.69 75 1017.0
20260504140511 81 68 1.7 2.6 0.00 0.69 0.69 77 1016.9
20260504130436 79 340 4.3 5.2 0.00 0.69 0.69 84 1016.4
20260504110323 75 26 1.7 1.7 0.00 0.69 0.69 92 1015.5
20260504100240 75 10 1.7 1.7 0.00 0.69 0.69 92 1015.4
20260504081628 74 55 0.0 0.0 0.00 0.69 0.69 92 1015.0
20260504081124 74 60 0.0 0.0 0.00 0.69 0.69 92 1015.2
20260504080621 74 9 0.9 0.9 0.00 0.69 0.69 92 1015.3
20260504080117 74 20 1.7 1.7 0.00 0.69 0.69 92 1015.2
20260504050433 77 174 5.2 6.1 0.00 0.00 0.00 89 1016.7
20260504045931 77 177 4.3 7.0 0.00 0.00 0.00 90 1016.6
20260504045426 77 138 4.3 7.0 0.00 0.00 0.00 90 1016.5
20260504044922 77 150 7.0 8.7 0.00 0.00 0.00 90 1016.8
20260504044420 77 169 3.5 5.2 0.00 0.00 0.00 90 1016.6
20260504043917 77 115 3.5 5.2 0.00 0.00 0.00 91 1016.6
20260504043414 77 122 4.3 6.1 0.00 0.00 0.00 91 1016.9
20260504042911 77 140 3.5 6.1 0.00 0.00 0.00 91 1016.9
20260504042408 77 145 4.3 6.1 0.00 0.00 0.00 91 1017.2
20260504041904 77 190 2.6 2.6 0.00 0.00 0.00 91 1017.0
20260504041401 77 159 2.6 4.3 0.00 0.00 0.00 91 1016.8
20260504040856 77 158 2.6 5.2 0.00 0.00 0.00 91 1016.7
20260504040354 77 163 3.5 4.3 0.00 0.00 0.00 92 1016.9
20260504035850 76 158 4.3 6.1 0.00 0.35 0.35 92 1016.8
20260504035348 77 141 4.3 5.2 0.00 0.35 0.35 92 1016.8
20260504034844 77 185 4.3 6.1 0.00 0.35 0.35 92 1016.8
20260504034342 77 115 0.9 0.9 0.00 0.35 0.35 92 1016.9
20260504033839 77 149 2.6 5.2 0.00 0.35 0.35 92 1016.9
20260504033337 76 153 5.2 7.8 0.00 0.35 0.35 92 1017.0
20260504032833 76 169 4.3 5.2 0.00 0.35 0.35 92 1017.0
20260504032331 76 168 5.2 7.8 0.00 0.35 0.35 92 1016.9
20260504031827 76 164 4.3 6.1 0.00 0.35 0.35 92 1016.7
20260504031324 76 144 5.2 6.1 0.00 0.35 0.35 92 1016.6
20260504030820 75 140 4.3 6.1 0.00 0.35 0.35 93 1016.7
20260504030318 75 153 4.3 5.2 0.00 0.35 0.35 92 1017.0
20260504025814 75 164 2.6 2.6 0.00 0.35 0.35 92 1017.4
20260504025311 75 133 2.6 2.6 0.00 0.35 0.35 92 1017.3
20260504024808 75 107 2.6 5.2 0.00 0.35 0.35 92 1017.3
20260504024304 75 158 6.1 7.0 0.00 0.35 0.35 92 1017.4
20260504023801 75 145 4.3 6.1 0.00 0.35 0.35 92 1017.8
20260504023257 76 137 2.6 2.6 0.07 0.35 0.35 91 1017.8
20260504022754 76 110 4.3 5.2 0.61 0.35 0.35 91 1017.3
20260504022250 76 167 7.0 8.7 1.13 0.34 0.34 91 1017.3
20260504021747 77 133 7.8 13.9 1.09 0.26 0.26 90 1017.0
20260504021244 77 154 5.2 6.1 0.85 0.18 0.18 89 1017.4
20260504020741 77 181 10.4 12.2 0.19 0.07 0.07 88 1017.0
20260504020238 78 112 7.8 11.3 0.07 0.04 0.04 88 1016.0
20260504015734 78 114 9.6 13.9 0.07 0.04 0.04 86 1016.5
20260504015230 79 152 7.8 13.9 0.00 0.03 0.03 85 1016.5
20260504014726 80 97 6.1 7.8 0.00 0.03 0.03 83 1016.9
20260504014223 80 120 4.3 7.0 0.00 0.03 0.03 83 1016.5
20260504013721 80 114 4.3 7.8 0.00 0.03 0.03 82 1016.8
20260504013218 79 128 6.1 7.8 0.00 0.03 0.03 83 1016.6
20260504012714 79 106 5.2 7.8 0.00 0.03 0.03 83 1016.4
20260504012213 79 110 2.6 5.2 0.00 0.03 0.03 82 1016.6
20260504011709 79 119 5.2 6.1 0.00 0.03 0.03 82 1016.3
20260504011206 79 104 5.2 7.0 0.00 0.03 0.03 82 1016.3
20260504010702 79 129 4.3 4.3 0.00 0.03 0.03 82 1016.4
20260504010158 80 103 3.5 5.2 0.00 0.03 0.03 82 1016.3
20260504005654 80 155 4.3 5.2 0.00 0.03 0.03 81 1016.7
20260504005151 80 123 6.1 7.0 0.00 0.03 0.03 81 1016.4
20260504004649 80 110 4.3 5.2 0.00 0.03 0.03 80 1016.4
20260504004146 80 96 2.6 4.3 0.00 0.03 0.03 80 1016.4
20260504003642 80 83 4.3 5.2 0.00 0.03 0.03 79 1016.3
20260504003139 80 114 2.6 2.6 0.00 0.03 0.03 80 1016.3
20260504002636 80 87 1.7 2.6 0.00 0.03 0.03 80 1016.2
20260504002134 80 62 2.6 2.6 0.00 0.03 0.03 80 1016.2
20260504001632 80 94 2.6 4.3 0.00 0.03 0.03 80 1016.1
20260504001127 80 94 2.6 2.6 0.00 0.03 0.03 80 1016.3
20260504000625 80 63 1.7 2.6 0.00 0.03 0.03 80 1016.1
20260504000122 80 81 3.5 5.2 0.00 0.03 0.03 80 1016.1
20260503235620 80 80 3.5 5.2 0.00 0.03 0.03 80 1016.1
20260503235116 80 81 2.6 4.3 0.00 0.03 0.03 80 1015.9
20260503234614 80 83 2.6 2.6 0.00 0.03 0.03 80 1015.9
20260503234112 80 76 4.3 6.1 0.00 0.03 0.03 80 1015.9
20260503233609 80 70 2.6 4.3 0.00 0.03 0.03 80 1015.6
20260503233104 80 98 2.6 4.3 0.00 0.03 0.03 79 1015.6
20260503232601 80 49 0.9 2.6 0.00 0.03 0.03 79 1015.3
20260503232059 81 45 1.7 1.7 0.00 0.03 0.03 79 1015.3
20260503231556 81 61 1.7 2.6 0.00 0.03 0.03 79 1015.0
20260503231053 80 72 2.6 2.6 0.00 0.03 0.03 78 1015.1
20260503230549 81 56 1.7 2.6 0.00 0.03 0.03 78 1015.1
20260503230047 80 77 2.6 4.3 0.00 0.03 0.03 78 1015.4
20260503225544 81 70 3.5 5.2 0.00 0.03 0.03 78 1015.3
20260503225039 80 56 2.6 5.2 0.00 0.03 0.03 78 1015.5
20260503224537 80 67 4.3 5.2 0.00 0.03 0.03 78 1015.6
20260503224035 81 77 1.7 1.7 0.00 0.03 0.03 79 1015.4
20260503223533 81 81 3.5 5.2 0.00 0.03 0.03 79 1015.3
20260503223028 81 61 3.5 4.3 0.00 0.03 0.03 79 1015.2
20260503222526 81 76 3.5 4.3 0.00 0.03 0.03 79 1015.2
20260503222024 81 58 1.7 2.6 0.00 0.03 0.03 79 1015.1
20260503221522 81 71 5.2 7.8 0.00 0.03 0.03 79 1015.2
20260503221019 81 62 2.6 4.3 0.00 0.03 0.03 79 1015.2
20260503220515 81 58 2.6 2.6 0.00 0.03 0.03 78 1015.1
20260503220012 82 39 4.3 7.8 0.00 0.03 0.03 77 1014.8
20260503215509 82 48 3.5 5.2 0.00 0.03 0.03 77 1014.9
20260503215006 82 51 3.5 5.2 0.00 0.03 0.03 76 1015.0
20260503214504 82 55 3.5 6.1 0.00 0.03 0.03 75 1015.1
20260503214001 82 56 2.6 4.3 0.00 0.03 0.03 75 1015.2
20260503213459 83 13 3.5 5.2 0.00 0.03 0.03 74 1015.3
20260503212955 83 38 3.5 4.3 0.00 0.03 0.03 74 1015.4
20260503212453 82 72 1.7 1.7 0.00 0.03 0.03 76 1015.1
20260503211950 82 36 1.7 2.6 0.00 0.03 0.03 77 1015.3
20260503211447 82 83 1.7 2.6 0.00 0.03 0.03 76 1015.4
20260503210942 82 47 3.5 5.2 0.00 0.03 0.03 77 1015.5
20260503210439 82 64 3.5 4.3 0.00 0.03 0.03 77 1015.3
20260503205934 81 52 3.5 5.2 0.00 0.03 0.03 77 1015.5
20260503205432 81 70 6.1 7.8 0.00 0.03 0.03 77 1015.7
20260503204927 81 72 4.3 6.1 0.00 0.03 0.03 77 1015.8
20260503204425 81 46 4.3 6.1 0.00 0.03 0.03 77 1015.7
20260503203922 81 14 3.5 5.2 0.00 0.03 0.03 77 1015.7
20260503203419 81 42 4.3 7.0 0.00 0.03 0.03 77 1016.1
20260503202916 82 74 2.6 5.2 0.00 0.03 0.03 77 1016.0
20260503202414 82 91 2.6 4.3 0.00 0.03 0.03 77 1016.0
20260503201913 82 31 2.6 4.3 0.00 0.03 0.03 76 1016.1
20260503201409 82 35 3.5 6.1 0.00 0.03 0.03 76 1016.2
20260503200907 82 41 3.5 6.1 0.00 0.03 0.03 76 1016.3
20260503200403 82 36 3.5 4.3 0.00 0.03 0.03 76 1016.2
20260503195900 82 84 4.3 8.7 0.00 0.03 0.03 77 1016.4
20260503195356 82 50 1.7 2.6 0.00 0.03 0.03 77 1016.2
20260503194853 82 70 3.5 5.2 0.00 0.03 0.03 77 1016.1
20260503194350 81 10 2.6 4.3 0.00 0.03 0.03 79 1016.5
20260503193846 81 45 5.2 7.0 0.00 0.03 0.03 78 1016.0
20260503193341 81 2 5.2 6.1 0.00 0.03 0.03 77 1016.1